C/2017 E1 ( Borisov )

Japanese version
Home page
Updated on May 22, 2017

---------------------------------------------------------------------

* Profile

Discovery Date March 1, 2017
Magnitude 17.0 mag
Discoverer Gennadii Vladimirovich Borisov (Nauchnij, Crimea)

* Pictures

* Orbital Elements

Epoch 2017 Mar. 28.0 TT = JDT 2457840.5
T 2017 Apr. 10.13728 TT                                 MPCW
q   0.9006738            (2000.0)            P               Q
z  -0.0029082      Peri.  152.47035     +0.43483314     +0.88756242
 +/-0.0001881      Node   142.73427     -0.86550311     +0.45857516
e   1.0026193      Incl.   14.55407     -0.24864532     -0.04406546
From 151 observations 2017 Mar. 1-Apr. 13, mean residual 0".6.

* Finding Charts

* Magnitudes Graph

        m1 = 10.5 + 5 log d + 15.0 log r

---------------------------------------------------------------------

The orbital elements are published on M.P.E.C. 2017-J52.
The charts are made with StellaNavigator Ver.10 (AstroArts).
The magnitudes graphs are made with Comet for Windows.

---------------------------------------------------------------------

Copyright(C) Seiichi Yoshida (comet@aerith.net). All rights reserved.